Вернуться в каталог

CZ-2C R/B

АктивенSSO
NORAD 37766·ROCKET BODY·🇨🇳 China

Запущен Jul 29, 2011 с Jiuquan Satellite Launch Center

Loading…

Ближайшие Пролёты (ближайшие 24 часа)

TLE

СвежийSource: Space-Track

Эпоха: Sep 14, 2026, 15:44 UTC

1 37766U 11039B   26257.65610545  .00000435  00000-0  79251-4 0  9997
2 37766  98.0924 154.7436 0043314  28.0425 332.3101 14.70454294809942

Отслеживайте CZ-2C R/B в реальном времени с AllMySat

Download on the App Store